Temp
-33 -32 -32 -32 -32 -32 -32 -31 -30 -29 -28 -27 -27 -27 -27 -27 -27 -27 -26 -26 -26 -26 -26 -26 -25 -25 -25 -25 -25 -25 -25 -25 -25 -25 -25 -25 -25 -25 -25 -25 -24 -24
-33 -33 -32 -32 -32 -32 -32 -32 -31 -30 -30 -29 -28 -27 -27 -27 -27 -27 -27 -27 -26 -26 -26 -26 -26 -26 -25 -25 -25 -25 -25 -25 -25 -25 -25 -25 -25 -25 -25 -25 -25 -25
-33 -33 -33 -32 -32 -32 -32 -32 -32 -32 -31 -30 -29 -29 -28 -28 -28 -28 -27 -27 -27 -26 -26 -26 -26 -26 -26 -26 -26 -26 -26 -25 -25 -25 -25 -25 -25 -25 -25 -25 -25 -25
-33 -33 -33 -33 -33 -33 -33 -33 -33 -32 -32 -31 -31 -30 -29 -29 -28 -28 -28 -28 -27 -27 -26 -26 -26 -26 -26 -26 -26 -26 -26 -26 -26 -25 -25 -25 -25 -25 -25 -26 -26 -26
-32 -32 -32 -32 -32 -33 -33 -33 -33 -33 -33 -32 -32 -31 -31 -30 -29 -29 -29 -28 -28 -28 -27 -26 -26 -26 -27 -27 -27 -27 -26 -26 -26 -26 -26 -26 -26 -26 -26 -26 -26 -26
-32 -32 -32 -32 -32 -32 -32 -32 -33 -33 -33 -33 -32 -32 -31 -31 -31 -30 -30 -29 -29 -28 -28 -27 -27 -27 -27 -27 -27 -27 -27 -27 -27 -27 -26 -26 -26 -26 -26 -26 -26 -26
-32 -32 -32 -32 -32 -32 -32 -32 -32 -32 -32 -33 -32 -32 -32 -32 -31 -31 -31 -30 -30 -29 -29 -28 -28 -28 -28 -27 -27 -27 -27 -27 -27 -27 -27 -27 -27 -27 -26 -26 -26 -27
-32 -32 -32 -32 -32 -32 -32 -32 -32 -32 -32 -32 -32 -32 -32 -32 -32 -32 -31 -31 -30 -30 -30 -29 -29 -28 -28 -28 -28 -28 -28 -27 -28 -28 -28 -28 -27 -27 -27 -27 -27 -27
-32 -32 -32 -32 -32 -32 -32 -31 -31 -31 -32 -32 -32 -32 -32 -32 -32 -32 -32 -31 -31 -31 -30 -30 -29 -29 -29 -29 -28 -28 -28 -28 -28 -28 -28 -28 -28 -28 -28 -28 -28 -28
-31 -31 -31 -31 -31 -31 -31 -31 -31 -31 -31 -31 -31 -32 -32 -32 -32 -32 -32 -32 -31 -31 -31 -30 -30 -30 -29 -29 -29 -29 -29 -29 -29 -28 -28 -28 -28 -28 -28 -28 -28 -28
-31 -31 -31 -31 -31 -31 -31 -31 -31 -31 -31 -31 -31 -31 -31 -31 -31 -31 -31 -31 -31 -31 -31 -31 -31 -31 -30 -30 -30 -30 -29 -29 -29 -29 -29 -29 -29 -29 -28 -28 -28 -28
-31 -31 -31 -31 -31 -31 -31 -31 -30 -30 -30 -30 -31 -31 -31 -31 -31 -31 -31 -31 -31 -31 -31 -31 -31 -31 -31 -31 -31 -30 -30 -30 -30 -30 -30 -30 -29 -29 -29 -29 -29 -28
-31 -31 -30 -30 -30 -30 -30 -30 -30 -30 -30 -30 -30 -30 -30 -30 -30 -30 -30 -31 -31 -31 -31 -31 -31 -31 -31 -31 -31 -31 -31 -31 -31 -30 -30 -30 -30 -30 -30 -30 -29 -29
-31 -30 -30 -30 -30 -30 -30 -30 -30 -30 -30 -30 -30 -30 -30 -30 -30 -30 -30 -30 -30 -30 -31 -31 -31 -31 -31 -31 -31 -31 -31 -31 -31 -31 -31 -30 -30 -31 -31 -30 -30 -30
-31 -30 -30 -30 -30 -30 -30 -30 -30 -30 -30 -30 -30 -31 -31 -31 -31 -30 -30 -30 -30 -30 -30 -30 -31 -31 -31 -31 -31 -31 -31 -31 -31 -31 -31 -31 -31 -31 -31 -31 -30 -30
-31 -30 -30 -30 -30 -30 -30 -30 -30 -30 -30 -30 -30 -30 -30 -30 -30 -30 -30 -30 -31 -31 -31 -31 -31 -31 -31 -31 -31 -31 -31 -31 -31 -31 -30 -30 -31 -31 -31 -31 -31 -31
-31 -30 -30 -30 -30 -30 -30 -30 -30 -30 -30 -30 -30 -30 -30 -30 -30 -30 -30 -31 -31 -31 -31 -32 -32 -32 -32 -32 -31 -31 -31 -31 -31 -31 -31 -31 -31 -31 -31 -31 -31 -31
-31 -31 -30 -30 -30 -30 -30 -30 -30 -30 -30 -30 -30 -30 -30 -30 -30 -30 -31 -31 -32 -32 -32 -32 -32 -32 -32 -32 -32 -32 -32 -32 -32 -32 -32 -31 -31 -31 -31 -31 -31 -31
-31 -31 -31 -31 -30 -30 -30 -30 -30 -30 -30 -30 -30 -30 -31 -31 -31 -31 -32 -32 -32 -32 -32 -32 -33 -33 -33 -33 -33 -33 -34 -33 -33 -33 -33 -33 -32 -32 -32 -32 -32 -31
-31 -31 -31 -31 -31 -30 -30 -30 -30 -30 -30 -31 -31 -31 -31 -32 -32 -32 -32 -33 -33 -33 -33 -33 -33 -33 -34 -34 -34 -34 -35 -35 -35 -35 -34 -34 -34 -34 -34 -33 -32 -32
-31 -31 -31 -31 -31 -31 -31 -31 -31 -31 -31 -31 -31 -32 -32 -32 -33 -33 -33 -33 -34 -34 -34 -34 -34 -34 -35 -35 -35 -35 -36 -36 -36 -36 -35 -35 -35 -35 -35 -35 -34 -33
-31 -31 -31 -31 -31 -31 -31 -31 -31 -32 -32 -32 -32 -32 -33 -33 -33 -33 -34 -34 -35 -35 -35 -35 -35 -36 -36 -36 -36 -36 -36 -36 -36 -36 -35 -35 -35 -35 -35 -35 -35 -34
-31 -31 -31 -31 -32 -32 -32 -32 -32 -32 -32 -33 -33 -33 -33 -34 -34 -34 -35 -35 -35 -36 -36 -36 -36 -36 -36 -36 -36 -36 -36 -36 -36 -35 -35 -35 -35 -35 -35 -35 -35 -35
-31 -32 -32 -32 -32 -32 -32 -32 -32 -33 -33 -33 -33 -34 -34 -35 -35 -35 -36 -36 -36 -36 -36 -36 -36 -36 -36 -36 -36 -36 -36 -35 -35 -35 -35 -35 -35 -35 -35 -35 -35 -35
-32 -32 -32 -32 -33 -33 -33 -33 -33 -33 -34 -34 -34 -35 -35 -35 -36 -36 -36 -36 -36 -36 -36 -36 -36 -36 -36 -36 -35 -35 -35 -35 -35 -34 -34 -34 -35 -35 -35 -35 -35 -35
-32 -32 -33 -33 -33 -33 -33 -33 -34 -34 -34 -35 -35 -35 -35 -36 -36 -36 -36 -36 -36 -36 -36 -36 -36 -35 -35 -35 -35 -35 -35 -34 -34 -34 -34 -34 -34 -34 -34 -35 -35 -35
Height
5333 5332 5331 5331 5331 5331 5332 5333 5335 5338 5343 5347 5352 5357 5361 5365 5370 5374 5379 5384 5388 5392 5395 5399 5402 5405 5408 5411 5414 5416 5419 5422 5425 5428 5430 5432 5435 5437 5440 5444 5448 5450
5328 5326 5325 5325 5325 5325 5325 5326 5327 5329 5332 5335 5339 5344 5349 5353 5357 5362 5366 5371 5376 5380 5383 5386 5389 5393 5395 5398 5401 5404 5407 5411 5414 5417 5419 5422 5425 5427 5430 5434 5437 5439
5323 5322 5320 5319 5319 5319 5319 5319 5320 5321 5323 5325 5327 5331 5335 5340 5344 5349 5353 5358 5363 5368 5371 5374 5377 5380 5383 5386 5388 5391 5395 5399 5402 5405 5407 5411 5414 5417 5421 5423 5425 5429
5318 5317 5316 5315 5314 5314 5313 5313 5314 5315 5315 5317 5319 5321 5323 5327 5331 5336 5340 5345 5350 5355 5358 5362 5365 5368 5370 5373 5376 5379 5383 5387 5390 5392 5394 5399 5403 5406 5411 5413 5414 5419
5314 5312 5311 5310 5310 5309 5309 5309 5309 5309 5310 5311 5312 5313 5315 5317 5320 5324 5328 5332 5337 5341 5345 5348 5352 5355 5358 5361 5364 5368 5372 5375 5378 5380 5382 5387 5391 5394 5398 5402 5405 5408
5309 5307 5306 5306 5305 5305 5305 5305 5305 5305 5305 5306 5306 5307 5308 5310 5312 5314 5318 5321 5324 5329 5333 5336 5339 5342 5346 5349 5352 5357 5361 5363 5366 5368 5370 5375 5379 5383 5386 5390 5394 5397
5304 5303 5302 5301 5301 5301 5300 5300 5301 5301 5301 5301 5301 5302 5302 5303 5305 5306 5309 5311 5314 5317 5321 5325 5328 5330 5334 5337 5341 5346 5349 5352 5356 5357 5360 5365 5368 5371 5375 5380 5383 5386
5300 5299 5298 5297 5296 5296 5296 5296 5296 5296 5296 5297 5297 5297 5297 5298 5299 5300 5301 5303 5305 5308 5311 5315 5318 5321 5323 5325 5329 5334 5338 5341 5345 5347 5350 5355 5358 5361 5365 5369 5373 5376
5295 5294 5294 5293 5292 5291 5291 5291 5291 5291 5292 5292 5293 5293 5293 5293 5294 5295 5296 5297 5298 5301 5303 5306 5309 5312 5314 5316 5319 5323 5326 5329 5333 5335 5339 5344 5348 5351 5355 5358 5362 5366
5290 5290 5289 5289 5288 5287 5287 5286 5286 5286 5287 5287 5288 5288 5289 5289 5289 5290 5290 5291 5292 5294 5296 5298 5301 5303 5306 5308 5310 5312 5315 5317 5321 5323 5327 5331 5335 5340 5343 5346 5351 5355
5285 5285 5284 5284 5284 5283 5283 5282 5282 5281 5282 5282 5282 5283 5284 5284 5285 5285 5286 5287 5288 5289 5290 5292 5293 5295 5297 5299 5301 5303 5304 5306 5308 5311 5314 5317 5322 5326 5330 5333 5338 5342
5280 5280 5279 5279 5279 5279 5279 5278 5278 5277 5277 5277 5277 5278 5278 5279 5279 5280 5281 5282 5283 5284 5285 5286 5287 5288 5290 5291 5293 5294 5295 5296 5297 5299 5301 5304 5308 5313 5317 5320 5324 5329
5274 5274 5274 5274 5274 5274 5274 5274 5273 5273 5273 5273 5273 5273 5273 5274 5274 5275 5276 5277 5278 5279 5280 5281 5282 5283 5284 5285 5285 5286 5286 5287 5288 5289 5290 5292 5296 5301 5304 5307 5311 5316
5269 5268 5268 5267 5267 5268 5268 5268 5268 5267 5267 5267 5268 5268 5268 5268 5269 5269 5270 5271 5272 5273 5274 5275 5275 5276 5277 5278 5278 5278 5278 5279 5279 5280 5281 5282 5286 5289 5291 5294 5298 5303
5263 5262 5262 5261 5261 5261 5261 5261 5261 5261 5261 5261 5262 5262 5262 5262 5262 5263 5264 5265 5265 5266 5267 5268 5268 5269 5269 5269 5269 5269 5269 5270 5271 5271 5272 5273 5275 5278 5280 5282 5286 5290
5258 5257 5256 5256 5255 5255 5255 5254 5255 5255 5255 5255 5256 5256 5255 5255 5256 5256 5256 5257 5258 5258 5259 5259 5260 5261 5260 5260 5259 5259 5259 5260 5261 5262 5263 5264 5266 5268 5270 5272 5274 5279
5254 5252 5251 5250 5249 5249 5249 5248 5248 5248 5249 5249 5249 5249 5248 5248 5249 5249 5249 5250 5250 5250 5250 5250 5251 5251 5250 5250 5250 5249 5249 5249 5251 5252 5253 5254 5256 5258 5260 5262 5263 5267
5249 5247 5246 5245 5244 5244 5243 5243 5243 5243 5243 5243 5242 5242 5242 5242 5242 5243 5243 5243 5243 5243 5242 5242 5242 5241 5241 5240 5239 5239 5238 5238 5239 5241 5242 5244 5246 5247 5249 5251 5253 5256
5244 5242 5241 5239 5239 5238 5238 5238 5237 5237 5237 5236 5236 5236 5236 5236 5236 5237 5237 5236 5235 5235 5235 5234 5234 5233 5231 5230 5229 5229 5228 5227 5228 5230 5232 5234 5236 5237 5238 5241 5243 5245
5238 5237 5235 5234 5233 5233 5232 5232 5232 5231 5231 5230 5230 5231 5231 5231 5231 5230 5229 5228 5227 5227 5226 5226 5226 5224 5223 5222 5221 5220 5220 5219 5219 5221 5223 5225 5227 5228 5229 5230 5232 5234
5233 5231 5229 5228 5228 5227 5227 5226 5226 5226 5226 5226 5226 5226 5225 5225 5224 5223 5222 5221 5220 5219 5218 5218 5217 5216 5215 5215 5214 5214 5214 5213 5213 5214 5216 5218 5220 5221 5221 5221 5222 5224
5227 5225 5224 5223 5223 5222 5222 5222 5221 5221 5221 5221 5220 5220 5219 5218 5217 5216 5215 5214 5213 5211 5211 5211 5211 5210 5209 5209 5209 5209 5209 5208 5208 5209 5211 5212 5213 5214 5214 5214 5214 5216
5222 5220 5220 5219 5219 5218 5218 5218 5217 5217 5216 5215 5215 5214 5213 5212 5211 5210 5209 5208 5207 5206 5206 5206 5206 5205 5205 5205 5204 5204 5204 5204 5205 5205 5206 5207 5208 5207 5207 5208 5208 5208
5217 5216 5216 5215 5215 5215 5214 5214 5213 5212 5211 5210 5209 5208 5207 5206 5206 5205 5204 5204 5203 5202 5201 5201 5202 5201 5201 5200 5200 5200 5201 5201 5201 5202 5203 5203 5203 5203 5202 5202 5202 5202
5213 5213 5213 5213 5212 5212 5211 5210 5209 5208 5207 5206 5205 5204 5204 5203 5202 5202 5201 5200 5199 5199 5198 5197 5197 5197 5197 5197 5197 5198 5198 5198 5198 5199 5199 5199 5199 5199 5199 5198 5198 5198
5211 5211 5211 5210 5209 5209 5208 5207 5206 5205 5204 5203 5203 5202 5202 5201 5200 5199 5198 5197 5196 5195 5195 5194 5194 5194 5195 5195 5195 5196 5196 5196 5196 5196 5196 5196 5197 5197 5198 5197 5197 5198
Wind_Speed
40 42 41 40 40 42 48 56 66 76 85 92 97 101 103 104 102 100 97 95 94 95 96 96 96 96 97 97 96 94 93 92 91 90 89 88 88 88 86 85 85 83
35 38 39 39 39 39 40 43 48 56 66 76 85 92 96 99 100 100 100 99 98 95 94 95 96 97 98 99 99 98 98 97 96 94 93 91 90 90 90 89 89 88
32 33 35 35 36 37 38 39 39 42 48 56 66 76 84 90 93 96 98 100 101 99 95 93 93 94 96 98 100 101 101 100 99 98 94 91 89 90 91 90 90 89
30 32 32 32 33 33 34 35 36 36 38 43 49 58 68 76 83 88 93 97 99 101 100 96 93 91 91 92 95 97 98 99 99 99 96 93 90 89 89 89 89 88
29 31 32 31 31 31 31 31 32 32 33 35 39 44 51 60 68 75 83 90 95 99 101 100 97 94 91 88 88 88 89 91 92 94 95 94 93 90 87 86 85 85
27 29 31 32 31 31 32 31 31 31 31 33 34 37 41 46 53 60 68 77 85 92 98 101 101 98 94 92 89 86 85 85 85 87 88 90 91 90 88 86 84 83
26 26 28 29 30 30 31 32 32 33 33 34 34 35 36 38 42 48 55 62 71 79 87 95 100 100 98 96 93 90 87 85 84 84 84 85 86 87 88 88 86 85
25 25 26 26 27 27 28 29 31 32 33 34 35 35 35 35 36 38 43 50 57 65 73 81 89 94 97 96 95 94 92 90 88 86 84 83 84 84 85 85 85 85
25 25 24 24 25 25 26 27 27 28 30 31 32 33 35 35 36 36 36 39 44 50 57 65 73 81 87 91 92 92 92 92 91 89 87 85 84 84 84 84 83 81
27 26 25 24 25 25 25 25 26 26 27 28 29 30 31 33 35 36 37 37 37 39 42 48 54 62 70 77 82 85 86 87 88 88 88 87 86 84 84 85 84 83
29 28 27 26 25 25 25 25 25 26 26 27 28 29 30 31 33 34 36 36 37 37 38 39 42 46 50 57 63 70 74 78 80 82 83 84 84 83 83 84 84 84
31 30 29 27 26 26 26 26 26 26 27 28 29 30 32 32 33 34 34 35 36 37 38 39 40 41 43 46 50 54 59 64 69 73 76 79 80 81 81 82 83 83
33 33 31 30 28 27 27 28 27 28 28 29 30 32 33 34 35 35 35 36 36 37 38 39 40 41 43 45 47 50 53 56 60 64 68 72 75 77 79 81 83 83
34 34 33 32 31 29 29 29 29 29 30 30 31 32 34 35 36 36 37 37 38 39 40 40 41 42 43 45 47 49 52 54 57 60 63 66 69 73 77 79 82 84
34 34 34 34 32 31 30 30 30 31 31 31 32 33 35 37 38 38 38 38 39 40 41 42 43 43 45 46 48 50 52 53 55 57 60 62 65 69 74 79 81 83
33 34 35 35 34 34 33 32 32 32 33 33 33 35 37 39 40 40 40 39 40 41 42 43 44 45 47 50 51 52 53 54 55 56 58 59 61 64 68 74 79 82
33 33 34 35 35 35 35 34 34 34 34 34 35 37 39 41 41 41 41 41 41 42 43 45 46 48 50 52 54 55 56 56 56 56 57 58 60 61 63 66 72 77
32 32 32 33 34 34 35 35 35 35 36 36 37 39 40 41 42 42 41 42 42 43 45 47 49 51 52 54 56 56 57 57 58 57 57 57 58 60 62 63 65 69
32 31 31 31 32 33 33 34 35 35 36 37 38 39 39 39 40 40 40 42 44 45 48 49 51 52 54 55 55 54 53 54 55 54 54 54 54 56 59 62 63 65
32 31 30 30 30 30 31 31 33 34 35 35 35 35 35 36 37 39 41 43 45 47 49 50 51 51 52 51 50 49 48 47 47 47 47 47 46 46 49 53 58 62
32 31 29 28 27 27 28 29 29 30 30 30 31 32 33 35 37 39 41 42 43 44 45 45 44 44 43 42 42 41 40 40 40 40 38 36 36 37 40 45 50 55
31 29 27 25 24 24 25 25 25 26 27 28 30 32 33 35 36 36 36 36 36 36 35 34 34 34 34 34 34 34 34 34 33 30 28 27 29 32 37 41 45 49
30 27 23 21 21 21 22 22 24 25 27 29 30 30 30 29 28 27 26 26 26 27 27 26 26 27 29 30 30 29 27 26 25 23 23 24 26 30 33 36 39 42
26 23 19 18 19 19 21 23 25 26 26 26 25 24 22 20 19 18 19 20 21 22 22 23 23 25 26 26 24 23 22 22 21 21 22 23 25 27 29 30 33 37
21 18 17 17 18 20 21 23 23 22 21 19 17 15 13 13 14 15 17 19 19 19 21 22 21 19 19 19 19 19 19 20 19 19 20 22 23 24 24 23 25 29
16 15 15 17 18 19 19 18 17 16 14 12 11 10 11 13 16 18 18 18 18 19 20 19 14 12 14 15 16 16 17 17 16 17 18 19 20 20 20 18 17 19
Wind_Direction
278 277 276 274 271 267 262 258 253 250 248 246 244 244 244 245 244 242 241 240 241 242 243 244 245 246 247 247 247 248 249 250 251 251 252 253 254 255 255 256 257 256
278 277 276 275 272 270 269 266 262 257 252 249 247 245 244 245 245 244 242 240 239 240 241 241 242 244 246 247 248 248 249 249 250 250 251 252 252 253 253 254 255 254
278 276 275 274 272 270 270 269 268 264 259 254 250 248 246 245 244 244 243 241 239 239 240 240 240 241 243 244 246 247 248 248 248 248 248 248 249 250 252 253 254 254
276 273 272 270 269 268 268 268 268 266 263 259 255 251 248 246 245 243 243 242 240 239 239 240 241 240 241 241 242 243 244 245 245 245 246 246 246 247 249 250 251 252
275 271 268 266 264 263 263 263 264 264 263 261 259 256 253 250 247 245 243 242 242 241 240 241 242 242 241 242 242 241 241 241 242 243 244 244 245 245 244 245 247 248
278 271 267 265 262 260 259 258 259 260 260 260 260 258 257 254 251 249 246 244 243 242 242 242 244 245 245 244 245 244 244 242 241 241 241 242 243 243 243 243 244 245
280 274 269 267 265 262 260 258 257 257 257 258 260 260 260 258 254 252 249 248 246 245 244 244 245 248 249 249 248 247 247 247 246 244 243 242 242 242 242 242 243 244
282 276 272 269 267 265 263 261 259 258 257 257 259 261 262 263 261 257 253 250 249 248 247 247 247 248 250 252 252 251 251 251 251 250 249 247 246 245 244 244 243 244
281 278 274 270 268 267 265 263 262 260 259 257 257 258 260 261 262 261 259 256 252 250 249 249 249 249 251 253 254 255 255 255 255 255 254 253 252 250 249 248 247 246
280 277 275 272 269 266 265 264 263 262 260 259 257 256 256 257 258 260 260 259 258 257 254 252 251 251 251 252 254 256 256 257 257 257 256 256 255 254 253 251 250 249
281 278 274 270 267 263 262 261 261 260 259 258 257 256 254 254 255 256 257 258 259 259 259 258 256 254 253 253 253 254 255 256 256 256 256 255 254 253 252 252 251 250
285 281 276 271 267 263 260 259 258 258 257 256 255 255 254 254 254 255 255 255 255 255 255 256 256 257 256 256 255 255 255 255 255 255 254 253 252 251 250 249 248 248
285 282 278 275 272 268 264 261 260 258 256 255 254 254 255 254 254 254 253 253 253 253 253 253 254 254 255 256 257 256 256 255 255 255 254 252 251 250 248 246 245 244
284 281 279 277 274 271 268 265 262 261 258 256 256 256 257 256 256 255 254 254 253 253 253 254 254 255 257 258 257 257 256 256 255 255 254 253 251 250 248 247 245 243
283 281 279 277 275 272 269 266 264 263 261 260 259 260 259 259 260 260 259 259 258 258 257 257 258 259 260 261 261 260 259 258 257 256 255 254 252 250 248 247 246 244
282 281 279 277 276 274 271 269 266 265 263 262 263 263 262 262 263 264 265 265 264 264 263 263 263 263 264 265 265 265 264 262 260 258 256 255 253 251 249 247 246 245
282 280 279 277 276 275 273 271 270 268 267 266 265 264 263 263 264 265 267 268 268 268 268 268 267 267 268 268 268 268 268 266 263 260 258 255 253 252 250 247 246 244
284 280 278 277 275 273 273 272 271 271 270 269 267 266 265 265 265 266 268 268 268 268 268 268 269 271 272 272 272 272 270 268 266 263 260 256 253 252 250 248 247 245
286 282 279 276 274 272 272 272 272 272 271 269 268 268 268 268 268 269 269 268 268 268 269 270 271 273 274 274 273 272 269 267 265 263 261 258 255 252 251 249 247 246
288 285 281 277 275 274 274 273 272 271 270 269 269 269 269 268 268 269 269 269 270 271 272 273 273 273 272 271 270 268 266 265 264 263 261 259 256 253 251 250 248 246
290 287 283 279 278 277 276 274 273 272 271 270 269 269 269 269 270 271 271 272 273 273 274 274 273 272 270 268 266 264 264 264 264 263 261 258 255 252 250 250 248 246
292 288 284 282 281 279 277 275 274 274 274 274 274 274 274 274 275 275 275 275 275 275 276 276 274 272 269 267 265 265 266 265 263 261 258 256 255 253 251 251 250 248
294 289 286 284 282 280 279 278 278 279 280 281 281 281 281 281 281 282 281 280 279 279 279 278 276 273 270 270 270 269 265 261 259 259 258 257 257 256 256 255 252 248
293 289 285 284 282 281 282 283 284 285 286 287 288 289 289 291 292 293 292 288 285 284 283 282 278 274 270 268 265 261 258 258 261 262 258 255 257 259 260 258 253 245
292 288 286 285 285 286 287 289 289 291 293 296 297 299 303 306 307 307 303 297 292 289 289 288 282 272 262 255 253 255 261 265 266 262 254 252 255 258 258 254 246 238
288 286 286 288 290 292 293 296 300 304 307 308 309 312 314 312 310 307 302 296 293 292 291 287 273 252 244 246 253 264 271 274 273 266 258 252 251 250 247 241 231 222